Time,TemperatureF,DewpointF,PressureIn,WindDirection,WindDirectionDegrees,WindSpeedMPH,WindSpeedGustMPH,Humidity,HourlyPrecipIn,Conditions,Clouds,dailyrainin,SoftwareType,DateUTC
2013-06-05 00:07:00,-999.0,-99.9,26.52,North,-999,-999.0,-999.0,-999,0.00,,,0.00,weatherlink.com 1.10,2013-06-05 04:07:00,
2013-06-05 00:22:00,-999.0,-99.9,26.51,North,-999,-999.0,-999.0,-999,0.00,,,0.00,weatherlink.com 1.10,2013-06-05 04:22:00,
2013-06-05 00:37:00,-999.0,-99.9,26.51,North,-999,-999.0,-999.0,-999,0.00,,,0.00,weatherlink.com 1.10,2013-06-05 04:37:00,
2013-06-05 00:52:00,-999.0,-99.9,26.50,North,-999,-999.0,-999.0,-999,0.00,,,0.00,weatherlink.com 1.10,2013-06-05 04:52:00,
2013-06-05 01:07:00,-999.0,-99.9,26.51,North,-999,-999.0,-999.0,-999,0.00,,,0.00,weatherlink.com 1.10,2013-06-05 05:07:00,
2013-06-05 01:22:00,-999.0,-99.9,26.50,North,-999,-999.0,-999.0,-999,0.00,,,0.00,weatherlink.com 1.10,2013-06-05 05:22:00,
2013-06-05 01:37:00,-999.0,-99.9,26.51,North,-999,-999.0,-999.0,-999,0.00,,,0.00,weatherlink.com 1.10,2013-06-05 05:37:00,
2013-06-05 01:52:00,-999.0,-99.9,26.50,North,-999,-999.0,-999.0,-999,0.00,,,0.00,weatherlink.com 1.10,2013-06-05 05:52:00,
2013-06-05 02:07:00,-999.0,-99.9,26.50,North,-999,-999.0,-999.0,-999,0.00,,,0.00,weatherlink.com 1.10,2013-06-05 06:07:00,
2013-06-05 02:22:00,-999.0,-99.9,26.50,North,-999,-999.0,-999.0,-999,0.00,,,0.00,weatherlink.com 1.10,2013-06-05 06:22:00,
2013-06-05 02:37:00,-999.0,-99.9,26.50,North,-999,-999.0,-999.0,-999,0.00,,,0.00,weatherlink.com 1.10,2013-06-05 06:37:00,
2013-06-05 02:52:00,-999.0,-99.9,26.50,North,-999,-999.0,-999.0,-999,0.00,,,0.00,weatherlink.com 1.10,2013-06-05 06:52:00,
2013-06-05 03:08:00,-999.0,-99.9,26.49,North,-999,-999.0,-999.0,-999,0.00,,,0.00,weatherlink.com 1.10,2013-06-05 07:08:00,
2013-06-05 03:23:00,-999.0,-99.9,26.49,North,-999,-999.0,-999.0,-999,0.00,,,0.00,weatherlink.com 1.10,2013-06-05 07:23:00,
2013-06-05 03:38:00,-999.0,-99.9,26.49,North,-999,-999.0,-999.0,-999,0.00,,,0.00,weatherlink.com 1.10,2013-06-05 07:38:00,
2013-06-05 03:53:00,-999.0,-99.9,26.49,North,-999,-999.0,-999.0,-999,0.00,,,0.00,weatherlink.com 1.10,2013-06-05 07:53:00,
2013-06-05 04:08:00,-999.0,-99.9,26.49,North,-999,-999.0,-999.0,-999,0.00,,,0.00,weatherlink.com 1.10,2013-06-05 08:08:00,
2013-06-05 04:23:00,-999.0,-99.9,26.49,North,-999,-999.0,-999.0,-999,0.00,,,0.00,weatherlink.com 1.10,2013-06-05 08:23:00,
2013-06-05 04:38:00,-999.0,-99.9,26.50,North,-999,-999.0,-999.0,-999,0.00,,,0.00,weatherlink.com 1.10,2013-06-05 08:38:00,
2013-06-05 04:53:00,-999.0,-99.9,26.49,North,-999,-999.0,-999.0,-999,0.00,,,0.00,weatherlink.com 1.10,2013-06-05 08:53:00,
2013-06-05 05:08:00,-999.0,-99.9,26.50,North,-999,-999.0,-999.0,-999,0.00,,,0.00,weatherlink.com 1.10,2013-06-05 09:08:00,
2013-06-05 05:23:00,-999.0,-99.9,26.50,North,-999,-999.0,-999.0,-999,0.00,,,0.00,weatherlink.com 1.10,2013-06-05 09:23:00,
2013-06-05 05:38:00,-999.0,-99.9,26.50,North,-999,-999.0,-999.0,-999,0.00,,,0.00,weatherlink.com 1.10,2013-06-05 09:38:00,
2013-06-05 05:53:00,-999.0,-99.9,26.50,North,-999,-999.0,-999.0,-999,0.00,,,0.00,weatherlink.com 1.10,2013-06-05 09:53:00,
2013-06-05 06:08:00,-999.0,-99.9,26.50,North,-999,-999.0,-999.0,-999,0.00,,,0.00,weatherlink.com 1.10,2013-06-05 10:08:00,
2013-06-05 06:24:00,-999.0,-99.9,26.50,North,-999,-999.0,-999.0,-999,0.00,,,0.00,weatherlink.com 1.10,2013-06-05 10:24:00,
2013-06-05 06:39:00,-999.0,-99.9,26.51,North,-999,-999.0,-999.0,-999,0.00,,,0.00,weatherlink.com 1.10,2013-06-05 10:39:00,
2013-06-05 06:54:00,-999.0,-99.9,26.51,North,-999,-999.0,-999.0,-999,0.00,,,0.00,weatherlink.com 1.10,2013-06-05 10:54:00,
2013-06-05 07:09:00,-999.0,-99.9,26.51,North,-999,-999.0,-999.0,-999,0.00,,,0.00,weatherlink.com 1.10,2013-06-05 11:09:00,
2013-06-05 07:24:00,59.6,58.0,26.52,ESE,108,0.0,2.0,95,0.00,,,0.00,weatherlink.com 1.10,2013-06-05 11:24:00,
2013-06-05 07:39:00,59.5,58.0,26.52,ESE,108,3.0,3.0,95,0.00,,,0.00,weatherlink.com 1.10,2013-06-05 11:39:00,
2013-06-05 07:54:00,59.8,58.0,26.52,ESE,108,0.0,4.0,95,0.00,,,0.00,weatherlink.com 1.10,2013-06-05 11:54:00,
2013-06-05 08:09:00,60.2,59.0,26.52,ESE,108,0.0,3.0,94,0.00,,,0.00,weatherlink.com 1.10,2013-06-05 12:09:00,
2013-06-05 08:24:00,60.5,59.0,26.52,ESE,108,3.0,4.0,93,0.00,,,0.00,weatherlink.com 1.10,2013-06-05 12:24:00,
2013-06-05 08:39:00,61.2,59.0,26.52,ESE,109,2.0,4.0,92,0.00,,,0.00,weatherlink.com 1.10,2013-06-05 12:39:00,
2013-06-05 08:54:00,61.5,58.0,26.52,ESE,116,0.0,5.0,89,0.00,,,0.00,weatherlink.com 1.10,2013-06-05 12:54:00,
2013-06-05 09:09:00,62.1,59.0,26.52,ESE,115,1.0,4.0,88,0.00,,,0.00,weatherlink.com 1.10,2013-06-05 13:09:00,
2013-06-05 09:24:00,62.6,59.0,26.52,SE,127,2.0,5.0,87,0.00,,,0.00,weatherlink.com 1.10,2013-06-05 13:24:00,
2013-06-05 09:39:00,62.4,59.0,26.52,SE,128,1.0,5.0,87,0.00,,,0.00,weatherlink.com 1.10,2013-06-05 13:39:00,
2013-06-05 09:54:00,62.1,59.0,26.52,ESE,121,3.0,5.0,88,0.00,,,0.00,weatherlink.com 1.10,2013-06-05 13:54:00,
2013-06-05 10:09:00,62.1,59.0,26.52,East,91,0.0,7.0,89,0.00,,,0.00,weatherlink.com 1.10,2013-06-05 14:09:00,
2013-06-05 10:24:00,62.7,59.0,26.52,ENE,78,2.0,5.0,87,0.00,,,0.00,weatherlink.com 1.10,2013-06-05 14:24:00,
2013-06-05 10:39:00,63.2,59.0,26.51,NE,55,4.0,6.0,86,0.00,,,0.00,weatherlink.com 1.10,2013-06-05 14:39:00,
2013-06-05 10:54:00,63.9,59.0,26.51,NNE,19,4.0,7.0,83,0.00,,,0.00,weatherlink.com 1.10,2013-06-05 14:54:00,
2013-06-05 11:09:00,65.8,60.0,26.51,NE,54,0.0,8.0,80,0.00,,,0.00,weatherlink.com 1.10,2013-06-05 15:09:00,
2013-06-05 11:24:00,66.6,60.0,26.51,SSE,147,1.0,9.0,79,0.00,,,0.00,weatherlink.com 1.10,2013-06-05 15:24:00,
2013-06-05 11:39:00,66.0,60.0,26.50,SE,131,0.0,7.0,80,0.00,,,0.00,weatherlink.com 1.10,2013-06-05 15:39:00,
2013-06-05 11:54:00,66.0,60.0,26.50,SSE,150,3.0,11.0,81,0.00,,,0.00,weatherlink.com 1.10,2013-06-05 15:54:00,
2013-06-05 12:09:00,66.4,60.0,26.50,SE,144,0.0,11.0,81,0.00,,,0.00,weatherlink.com 1.10,2013-06-05 16:09:00,
2013-06-05 12:24:00,66.6,61.0,26.49,SSE,157,7.0,10.0,82,0.00,,,0.00,weatherlink.com 1.10,2013-06-05 16:24:00,
2013-06-05 12:39:00,66.1,60.0,26.49,ESE,113,1.0,8.0,81,0.00,,,0.00,weatherlink.com 1.10,2013-06-05 16:39:00,
2013-06-05 12:54:00,65.6,60.0,26.50,SE,141,6.0,8.0,83,0.00,,,0.00,weatherlink.com 1.10,2013-06-05 16:54:00,
2013-06-05 13:09:00,65.6,60.0,26.50,SE,126,2.0,8.0,82,0.00,,,0.00,weatherlink.com 1.10,2013-06-05 17:09:00,
2013-06-05 13:24:00,65.2,61.0,26.50,South,182,4.0,10.0,85,0.00,,,0.00,weatherlink.com 1.10,2013-06-05 17:24:00,
2013-06-05 13:39:00,65.3,60.0,26.49,ESE,103,2.0,6.0,84,0.00,,,0.00,weatherlink.com 1.10,2013-06-05 17:39:00,
2013-06-05 13:54:00,65.5,61.0,26.49,East,91,3.0,7.0,84,0.00,,,0.00,weatherlink.com 1.10,2013-06-05 17:54:00,
2013-06-05 14:09:00,65.3,60.0,26.49,East,79,6.0,6.0,82,0.00,,,0.00,weatherlink.com 1.10,2013-06-05 18:09:00,
2013-06-05 14:24:00,66.0,61.0,26.49,SSW,206,6.0,7.0,83,0.00,,,0.00,weatherlink.com 1.10,2013-06-05 18:24:00,
2013-06-05 14:39:00,67.3,61.0,26.48,ESE,118,0.0,8.0,79,0.00,,,0.00,weatherlink.com 1.10,2013-06-05 18:39:00,
2013-06-05 14:54:00,66.9,61.0,26.47,SE,145,3.0,12.0,81,0.00,,,0.00,weatherlink.com 1.10,2013-06-05 18:54:00,
2013-06-05 15:09:00,66.6,61.0,26.47,SSE,153,1.0,9.0,82,0.00,,,0.00,weatherlink.com 1.10,2013-06-05 19:09:00,
2013-06-05 15:24:00,65.0,60.0,26.48,SSE,159,3.0,8.0,85,0.00,,,0.00,weatherlink.com 1.10,2013-06-05 19:24:00,
2013-06-05 15:39:00,65.5,61.0,26.46,ESE,116,5.0,8.0,84,0.00,,,0.00,weatherlink.com 1.10,2013-06-05 19:39:00,
2013-06-05 15:54:00,65.8,61.0,26.45,SSE,165,4.0,9.0,83,0.00,,,0.00,weatherlink.com 1.10,2013-06-05 19:54:00,
2013-06-05 16:09:00,65.5,61.0,26.45,SE,146,2.0,9.0,85,0.00,,,0.00,weatherlink.com 1.10,2013-06-05 20:09:00,
2013-06-05 16:25:00,63.9,60.0,26.45,SE,133,2.0,8.0,87,0.00,,,0.00,weatherlink.com 1.10,2013-06-05 20:25:00,
2013-06-05 16:40:00,63.7,61.0,26.45,SSE,147,1.0,7.0,89,0.00,,,0.00,weatherlink.com 1.10,2013-06-05 20:40:00,
2013-06-05 16:55:00,63.7,61.0,26.45,ESE,116,0.0,7.0,89,0.00,,,0.00,weatherlink.com 1.10,2013-06-05 20:55:00,
2013-06-05 17:10:00,63.1,60.0,26.45,ESE,107,2.0,8.0,90,0.00,,,0.00,weatherlink.com 1.10,2013-06-05 21:10:00,
2013-06-05 17:25:00,62.4,60.0,26.45,SSE,167,2.0,4.0,92,0.00,,,0.00,weatherlink.com 1.10,2013-06-05 21:25:00,
2013-06-05 17:40:00,62.6,60.0,26.44,SSE,161,0.0,4.0,92,0.00,,,0.00,weatherlink.com 1.10,2013-06-05 21:40:00,
2013-06-05 17:55:00,62.1,60.0,26.44,East,90,0.0,9.0,93,0.00,,,0.00,weatherlink.com 1.10,2013-06-05 21:55:00,
2013-06-05 18:10:00,61.8,60.0,26.43,East,98,0.0,5.0,94,0.00,,,0.00,weatherlink.com 1.10,2013-06-05 22:10:00,
2013-06-05 18:25:00,62.0,60.0,26.43,East,98,0.0,1.0,94,0.00,,,0.00,weatherlink.com 1.10,2013-06-05 22:25:00,
2013-06-05 18:40:00,-999.0,-99.9,26.43,North,-999,-999.0,-999.0,-999,0.00,,,0.00,weatherlink.com 1.10,2013-06-05 22:40:00,
2013-06-05 18:55:00,-999.0,-99.9,26.43,North,-999,-999.0,-999.0,-999,0.00,,,0.00,weatherlink.com 1.10,2013-06-05 22:55:00,
2013-06-05 19:10:00,-999.0,-99.9,26.43,North,-999,-999.0,-999.0,-999,0.00,,,0.00,weatherlink.com 1.10,2013-06-05 23:10:00,
2013-06-05 19:25:00,-999.0,-99.9,26.44,North,-999,-999.0,-999.0,-999,0.00,,,0.00,weatherlink.com 1.10,2013-06-05 23:25:00,
2013-06-05 19:40:00,-999.0,-99.9,26.44,North,-999,-999.0,-999.0,-999,0.00,,,0.00,weatherlink.com 1.10,2013-06-05 23:40:00,
2013-06-05 19:55:00,-999.0,-99.9,26.44,North,-999,-999.0,-999.0,-999,0.00,,,0.00,weatherlink.com 1.10,2013-06-05 23:55:00,
2013-06-05 20:10:00,-999.0,-99.9,26.44,North,-999,-999.0,-999.0,-999,0.00,,,0.00,weatherlink.com 1.10,2013-06-06 00:10:00,
2013-06-05 20:25:00,-999.0,-99.9,26.44,North,-999,-999.0,-999.0,-999,0.00,,,0.00,weatherlink.com 1.10,2013-06-06 00:25:00,
2013-06-05 20:40:00,-999.0,-99.9,26.44,North,-999,-999.0,-999.0,-999,0.00,,,0.00,weatherlink.com 1.10,2013-06-06 00:40:00,
2013-06-05 20:55:00,-999.0,-99.9,26.43,North,-999,-999.0,-999.0,-999,0.00,,,0.00,weatherlink.com 1.10,2013-06-06 00:55:00,
2013-06-05 21:10:00,-999.0,-99.9,26.43,North,-999,-999.0,-999.0,-999,0.00,,,0.00,weatherlink.com 1.10,2013-06-06 01:10:00,
2013-06-05 21:26:00,-999.0,-99.9,26.44,North,-999,-999.0,-999.0,-999,0.00,,,0.00,weatherlink.com 1.10,2013-06-06 01:26:00,
2013-06-05 21:41:00,-999.0,-99.9,26.43,North,-999,-999.0,-999.0,-999,0.00,,,0.00,weatherlink.com 1.10,2013-06-06 01:41:00,
2013-06-05 21:56:00,-999.0,-99.9,26.44,North,-999,-999.0,-999.0,-999,0.00,,,0.00,weatherlink.com 1.10,2013-06-06 01:56:00,
2013-06-05 22:11:00,-999.0,-99.9,26.44,North,-999,-999.0,-999.0,-999,0.00,,,0.00,weatherlink.com 1.10,2013-06-06 02:11:00,
2013-06-05 22:26:00,-999.0,-99.9,26.44,North,-999,-999.0,-999.0,-999,0.00,,,0.00,weatherlink.com 1.10,2013-06-06 02:26:00,
2013-06-05 22:41:00,-999.0,-99.9,26.44,North,-999,-999.0,-999.0,-999,0.00,,,0.00,weatherlink.com 1.10,2013-06-06 02:41:00,
2013-06-05 22:56:00,-999.0,-99.9,26.44,North,-999,-999.0,-999.0,-999,0.00,,,0.00,weatherlink.com 1.10,2013-06-06 02:56:00,
2013-06-05 23:11:00,-999.0,-99.9,26.44,North,-999,-999.0,-999.0,-999,0.00,,,0.00,weatherlink.com 1.10,2013-06-06 03:11:00,
2013-06-05 23:26:00,-999.0,-99.9,26.44,North,-999,-999.0,-999.0,-999,0.00,,,0.00,weatherlink.com 1.10,2013-06-06 03:26:00,
2013-06-05 23:41:00,-999.0,-99.9,26.43,North,-999,-999.0,-999.0,-999,0.00,,,0.00,weatherlink.com 1.10,2013-06-06 03:41:00,
2013-06-05 23:56:00,-999.0,-99.9,26.43,North,-999,-999.0,-999.0,-999,0.00,,,0.00,weatherlink.com 1.10,2013-06-06 03:56:00,